CAPE
965 1920 1939 1889 1768 1601 1505 1524 1447 1342 1322 1366 1487 1451 1456 1586 1673 1998 2376 3108 3348 3553 3502 3394 3187 3109 3054 2881 2590 2381 2241 2202 2291 2226 2213 1979 1568 1480 1667 1478 1554 1845 1614 1828 2033 1920 2518 2475 2677 2916 3000 2846 2774 3353 3829 3657 3651 3791 4072 4792 3913 3998 4099
1134 1604 1832 1756 1723 1247 1742 1672 1612 1470 1414 1414 1488 1597 1497 1614 1760 1963 2417 3028 3301 3532 3534 3466 3266 3151 2971 2936 2676 2621 2552 2208 2301 2263 2171 2049 1942 1842 1751 1855 1583 1766 1917 1685 1873 2292 2505 2774 2651 2680 2622 3065 2776 3141 3343 3396 3536 3593 3490 3799 3775 4026 3814
1123 1217 1086 1704 1788 1386 2033 1835 1726 1598 1516 1461 1476 1571 1586 1728 1810 2066 2422 2842 3205 3406 3505 3459 3453 3084 3116 3030 2782 2722 2614 2246 2248 2324 2139 1794 1971 1586 1646 1872 1855 1648 1757 1568 1738 2291 2469 2701 2629 2509 2452 2360 2004 2529 2972 2970 3124 3224 3366 3711 3591 3374 3724
878 1186 1053 1158 1180 1850 1869 1963 1881 1524 1505 1456 1502 1652 1662 1774 1755 2095 2394 2616 3009 3192 3396 3230 3197 3008 2961 3094 2970 2883 2684 2527 2181 1991 1843 1557 1675 1779 1586 1775 1912 1576 1464 1517 1434 1450 1406 1569 2209 2479 2585 2320 2200 2176 2527 2404 2382 2792 3007 3347 3263 3100 3418
614 575 993 1102 1069 1528 1823 1896 1902 1954 1601 1170 1521 1721 1766 1681 1714 1948 2252 2274 2369 2702 2939 2961 2771 2754 2836 2885 2757 2652 2678 2491 2236 1898 1786 1620 1615 1689 1594 1425 1619 1562 1177 1373 1570 1647 1856 2095 1957 2041 2636 2636 2443 2446 2514 2659 2393 2525 2814 3058 3066 2713 2916
573 600 601 968 1041 1188 1226 1342 1838 1856 1883 1521 1359 1410 1608 1600 1665 1755 2058 2108 2018 2227 2604 2689 2598 2737 2777 2732 2573 2376 2642 2612 2448 2192 1909 1836 1850 1655 1746 1623 1442 1523 980 1274 1282 1577 2384 2115 1644 1676 1895 1936 1760 1523 1915 2099 2158 2170 2598 2920 2903 2535 2358
416 579 653 823 1207 1109 1325 1725 1703 1548 1403 1402 1244 1300 1623 1419 1606 1608 1756 1838 1849 1958 2162 2356 2336 2488 2848 2687 2617 2681 2652 2599 2538 2259 2015 1904 1802 1785 1808 1730 1576 1180 1135 1143 1329 1343 1724 2078 1770 1869 1897 1501 1417 1329 1493 1969 1805 1888 2274 2759 3042 2984 2765
462 318 620 781 960 1125 1132 1270 1737 1332 1358 1379 1321 1269 1553 1506 1550 1654 1648 1595 1711 1670 1855 1945 2131 2322 2730 2763 2654 2553 2599 2480 2457 2448 2284 1890 1729 1868 1820 1706 1709 1510 1436 1129 1454 1446 1301 1704 1577 1724 1882 1445 1483 1673 1525 2080 2590 1940 1883 2389 2754 2947 2630
686 660 552 806 1066 1102 1162 1248 1300 1211 1271 1561 1356 1347 1226 1219 1172 1499 1522 1495 1566 1613 1686 1760 1868 2064 2552 2719 2731 2715 2605 2503 2494 2563 2330 1972 1636 1610 1524 1502 1626 1714 1657 1281 1040 1564 1372 1127 1278 1452 1993 1909 1645 2099 2036 2326 2286 1942 1952 2030 2538 2775 2359
756 750 722 942 1081 1224 1218 1146 1194 1201 1392 1703 1788 1708 1388 1645 1558 1261 1456 1458 1183 1483 1573 1655 1737 1884 2280 2631 2655 2615 2576 2596 2350 2269 2284 1920 1677 1419 1316 998 1308 1632 1665 1458 882 824 1492 1231 1043 1386 2059 2514 2036 2266 2456 2219 2369 1960 1904 2327 2570 2570 2760
689 766 908 938 1054 1180 1248 1171 1200 1215 1180 1309 1534 1476 1668 1597 1596 1238 1469 1359 1131 1135 1300 1587 1736 1758 2022 2387 2502 2402 2446 2422 2312 2177 2164 1880 1495 1434 1301 1011 787 1145 1472 1382 993 600 792 1494 1362 1324 1972 2450 2208 2139 2442 2209 2399 2468 1967 1883 2052 2385 2170
602 616 582 817 877 1092 1212 1164 1157 1185 1170 1160 1290 1263 1563 1245 1235 1530 1149 1430 1060 1082 1142 1170 1378 1682 1866 2173 2302 2320 2273 2342 2272 2069 2054 1930 1646 1424 1306 1154 848 778 1230 1385 1146 854 548 1069 1542 1286 1753 2365 2134 1826 2234 2397 2321 2514 2377 1713 1671 1927 1960
374 530 623 579 790 908 984 1048 1227 1210 1179 1107 1189 1281 1154 1358 1082 1048 1535 1478 1094 1251 1039 1438 1410 1697 1683 1926 2070 2254 2190 2208 2194 2158 1966 2065 1905 1570 1404 1213 997 855 858 1314 1238 883 637 632 1344 1578 1561 2197 2197 1578 1761 2323 2391 2498 2738 2315 1655 1815 2180
457 514 692 772 778 848 895 1037 1149 1149 1239 1206 1191 1162 1163 1124 1070 1473 1487 1004 1153 1032 986 978 982 1223 1694 1806 2018 2168 2166 2060 2116 2173 2153 2096 2243 2063 1661 1475 1301 1183 1103 1242 1446 1068 694 558 696 1383 1526 1644 1888 1735 1505 2038 2562 2777 2875 2778 1941 1771 2200
205 369 416 626 685 622 926 1017 937 1026 1082 1176 1204 1232 1171 1113 1078 1089 1511 1757 2151 1024 1040 1010 994 1287 1556 1728 1944 2232 2220 2182 2038 2153 2317 2339 2503 2422 2155 1829 1716 1606 1548 1484 1471 1223 983 788 490 741 1223 1326 1410 1507 1390 1201 1932 2221 2519 2791 2600 2015 1705
87 289 352 424 627 604 829 753 942 966 1004 1126 1172 1212 1192 1176 1144 1071 1046 1429 1650 1539 1014 960 992 1046 1071 1557 1868 2015 2103 2335 2286 2205 2466 2534 2672 2813 2632 2176 1977 1760 1806 1701 1702 1644 1492 1287 1078 754 823 1202 1432 1500 1355 1126 1022 1728 1728 2142 2344 2237 1414
18 99 303 307 481 628 591 681 793 942 935 944 1065 1168 1164 1148 1167 1150 1180 1148 1079 1808 1667 844 809 931 1066 1588 1776 2025 2038 2198 2483 2432 2503 2750 2862 2958 2975 2546 2152 1994 2091 2058 1974 1959 1893 1681 1445 1185 858 846 1135 1351 1343 1053 678 980 1488 1624 1808 1965 2152
0 0 154 284 235 370 468 540 646 731 821 986 1045 1072 1151 1160 1142 1158 1170 1180 1208 1395 1541 1720 824 992 1057 1572 1727 1977 2254 2350 2686 2661 2640 2725 2994 3162 3226 2799 2419 2310 2281 2204 2086 2262 1989 1834 1698 1628 1292 948 933 1021 1133 1179 751 154 1106 1231 1248 1418 1460
0 0 0 167 433 416 422 555 596 614 607 682 756 983 1144 1151 1201 1214 1239 1255 1264 1233 1523 1809 1920 1253 1327 1336 1566 1813 2078 2468 2738 2816 2628 2917 3083 3238 3262 2968 2698 2455 2295 2162 2217 2113 2305 2218 1911 1872 1708 1399 1262 1135 1069 1089 837 97 0 882 806 415 548
0 0 0 0 0 61 207 351 486 725 664 647 610 738 853 973 1093 1156 1198 1198 1199 1287 2016 1857 2118 2504 2750 1973 1688 1726 1936 2335 2610 2891 2856 2921 3087 3136 2888 2834 2780 2442 2040 1848 1934 2146 2201 2185 2166 2009 2066 1888 1614 1516 1366 1278 933 824 261 0 0 0 230
0 0 0 0 0 0 21 96 203 285 439 618 631 670 759 850 764 894 969 1065 1062 1068 1052 1923 2492 2170 2316 2458 1834 1289 1801 2173 1964 2528 2722 2911 2863 2896 2943 2818 2689 2510 2053 1633 1655 1861 2127 2105 2113 2081 2106 1979 1824 1740 1524 1312 974 898 780 130 0 0 20
0 0 0 0 0 0 0 0 0 0 189 259 540 617 691 719 668 720 763 858 973 975 898 1279 1884 1865 2202 2208 2542 2597 2316 1951 1857 2300 2461 2651 2738 2870 3026 2886 2699 2576 2460 2066 1649 1661 1795 2046 1981 1830 1898 1920 1935 1850 1776 1624 1113 1109 1092 1021 899 714 433
0 0 0 0 0 0 0 0 0 0 0 0 0 423 519 599 634 708 700 798 816 921 957 991 945 868 1157 1507 1657 2023 2181 2396 2449 2812 2505 2652 2541 2579 2797 2736 2620 2626 2562 2328 1989 1770 1590 1697 1952 1910 1823 1799 1881 1857 1854 1796 1389 1142 1140 1162 1130 1060 944
0 0 0 0 0 0 0 0 0 0 0 0 0 0 250 408 515 519 623 705 754 733 801 861 910 750 672 741 830 1368 1750 1934 1976 1938 1975 2333 2302 2225 2498 2668 2570 2723 2619 2375 2145 1901 1762 1738 1808 1915 1664 1494 1725 1642 1761 1821 1533 1181 1182 1198 1179 1167 1157
0 0 0 0 0 0 0 0 0 0 0 0 0 0 0 74 347 405 436 505 574 736 802 850 834 902 943 986 924 893 1440 1844 2026 1916 1896 1947 2022 2170 2110 2372 2548 2557 2507 2359 2319 2335 2334 1902 1744 1860 1840 1574 1381 1281 1248 1677 1577 1218 1237 1232 1234 1209 1248
0 0 0 0 0 0 0 0 0 0 0 0 0 0 0 0 0 224 358 386 493 542 580 677 743 825 917 1017 1007 982 990 1792 1867 2088 2099 2045 1950 1885 2256 2073 2109 2322 2399 2584 2320 2275 2352 2371 2170 2186 2019 1589 1426 1372 1281 1675 1744 2498 1348 1351 1328 1290 1351
0 0 0 0 0 0 0 0 0 0 0 0 0 0 0 0 0 0 96 236 336 362 387 478 607 684 790 849 1030 1081 1058 1150 1595 2000 2225 2045 2239 2296 2075 2102 2446 2447 2268 2184 2356 2450 2578 2249 2234 2040 1939 1934 1962 1614 1332 1465 1827 2006 1407 1495 1535 1491 1405
0 0 0 0 0 0 0 0 0 0 0 0 0 0 0 0 0 0 0 0 47 130 0 311 514 624 661 713 714 859 917 1361 1125 1440 1867 2065 2293 2311 2321 2141 2152 2137 2455 2240 2055 2306 2374 2247 1996 1924 1927 1895 1776 1732 1666 1562 1582 2080 1755 1622 1701 1730 1704
0 0 0 0 0 0 0 0 0 0 0 0 0 0 0 0 0 0 0 0 0 0 0 50 241 261 369 431 454 526 564 640 798 1197 1441 1550 1801 1816 1994 2108 2373 2438 2366 2396 2372 2172 2068 2276 2239 2066 1826 1824 1691 1848 1792 1933 2182 1723 2188 1869 1786 1777 1797
0 0 0 0 0 0 0 0 0 0 0 0 0 0 0 0 0 0 0 0 1 0 0 0 0 174 296 344 292 407 408 427 448 478 561 1126 1462 1602 1772 2034 2132 2510 2601 2453 2461 2127 2081 2228 2444 2265 1854 1908 2095 2064 2068 2374 2402 2331 2188 2204 2124 2007 1888
0 0 0 0 0 0 0 0 0 0 0 0 0 0 0 0 0 0 0 0 0 0 0 0 0 0 12 220 248 255 344 397 371 449 452 437 665 1161 1889 1868 1754 2024 2380 2101 2268 2234 2210 2237 2204 2282 2067 1848 2210 2406 2579 2478 2564 3154 3566 2574 2419 2335 2300
0 0 0 0 0 0 0 0 0 0 0 0 0 0 0 0 0 0 0 0 0 0 0 0 0 0 2 51 1 100 127 214 221 268 238 253 562 890 1127 1608 1920 2004 2006 2029 2184 2251 2204 2158 2249 2234 1979 2041 2127 2161 2555 2864 2959 3527 3807 2650 2682 2495 2448
0 0 0 0 0 0 0 0 0 0 0 0 0 0 0 0 0 0 0 0 0 0 0 0 0 1 0 1 46 0 3 1 212 265 156 172 399 566 1014 1246 1447 1635 1843 1948 1880 1973 2126 2178 2138 2283 2335 2347 2352 2355 2385 2796 3379 3054 2556 2552 2194 1924 2180
0 0 0 0 0 0 0 0 0 0 0 0 0 0 0 0 0 0 0 0 0 0 0 0 0 0 0 0 0 2 2 10 16 121 223 251 452 368 325 1054 1500 1730 1839 2020 1953 1923 1911 2043 2148 2184 2397 2457 2694 2736 3140 3184 3115 2515 2192 1836 1807 2014 2047
0 0 0 0 0 0 0 0 0 0 2 0 0 0 0 0 0 0 0 0 0 0 0 0 0 0 0 0 0 0 6 9 14 85 124 160 181 196 231 174 669 1358 2058 2097 2149 2162 2259 2346 2236 2431 2379 2098 2432 2511 2968 2983 2722 2588 2114 1891 1744 1570 1684
2 1 0 0 0 0 0 0 0 0 0 0 0 0 0 0 0 0 0 0 1 1 0 0 0 0 0 0 0 0 0 0 7 34 73 81 124 116 125 117 36 253 323 723 812 934 1184 1463 1754 2186 2345 2383 2501 2733 2710 2872 3416 2456 2283 2162 1950 1827 1828
1 0 0 0 0 0 0 0 0 0 0 0 0 0 0 0 0 0 0 0 0 0 0 1 0 0 0 0 0 0 0 0 0 0 60 111 130 212 353 334 385 28 0 370 470 512 539 569 681 1026 1193 1318 1604 1907 2030 2043 2142 2242 2244 2222 2058 2066 2054
1 1 1 2 0 0 0 0 0 0 0 0 0 0 3 7 2 1 0 0 0 2 2 2 7 2 0 0 0 0 0 0 0 0 1 13 26 70 76 177 252 271 189 0 0 0 290 458 489 533 578 634 720 799 818 1091 1547 1878 2039 2194 2341 2366 2264
Wind_Speed
17 15 14 14 13 10 8 7 7 8 7 4 2 2 2 2 3 4 5 7 6 9 12 14 15 15 13 12 9 7 6 7 8 7 6 6 7 7 8 9 9 9 9 7 5 4 3 2 3 3 4 5 3 3 2 2 1 1 1 1 2 3 2
28 17 15 14 13 10 7 8 8 8 8 6 4 2 1 2 2 3 5 7 7 8 11 14 16 16 15 13 11 7 6 6 7 8 8 8 8 9 9 10 10 10 9 9 7 6 4 2 2 3 4 5 5 4 3 2 0 1 2 0 2 2 3
33 32 27 17 12 10 9 9 8 7 7 7 5 3 0 1 2 4 6 7 8 8 11 14 16 16 16 14 11 8 6 6 7 7 6 7 7 6 9 10 10 10 9 8 9 8 6 4 3 3 3 4 5 5 3 2 1 0 1 1 1 2 4
36 35 32 30 24 11 11 10 8 7 7 7 7 6 4 4 4 5 6 8 8 9 9 12 16 17 17 14 12 10 7 7 7 7 6 7 8 8 9 10 11 11 10 10 9 8 8 6 4 4 3 4 4 4 4 2 1 1 0 0 1 2 3
39 36 33 29 25 19 14 13 11 8 8 9 10 9 9 8 7 7 6 7 7 8 10 12 17 19 19 16 16 14 10 8 8 9 9 8 8 10 9 9 9 9 10 10 9 9 8 7 5 4 4 4 5 5 3 3 1 2 1 1 0 1 1
40 36 32 29 23 19 15 14 13 10 9 10 11 10 11 10 10 7 7 7 8 10 11 11 14 18 18 17 16 15 13 11 11 11 10 9 9 10 10 9 10 10 9 9 10 9 7 6 5 4 4 4 4 4 4 3 2 2 2 2 1 1 1
40 38 34 33 28 17 18 17 16 15 14 14 13 13 14 13 11 9 9 8 7 9 10 10 12 16 20 20 17 15 13 12 12 11 11 9 9 9 11 11 10 10 10 11 10 10 8 7 6 5 4 3 4 4 5 4 3 3 3 3 3 2 2
43 39 37 36 36 35 29 18 17 20 19 13 11 11 13 14 14 13 11 10 9 9 10 11 12 16 19 21 20 17 16 14 14 14 13 10 9 9 11 11 11 10 10 10 10 10 9 8 7 6 5 4 4 5 5 5 4 3 4 4 4 3 3
45 44 42 41 39 36 36 39 38 28 16 13 14 14 14 14 15 15 14 12 11 9 9 11 13 15 19 21 21 19 19 17 16 15 13 11 10 9 10 11 11 11 10 9 10 10 9 9 8 8 7 6 6 6 6 6 5 4 4 4 4 4 2
49 47 46 44 41 38 38 38 38 39 40 29 17 18 14 16 15 16 17 15 14 10 9 11 13 15 18 19 20 21 20 19 17 15 15 12 11 10 10 12 12 12 10 9 10 10 11 10 9 9 9 8 7 7 8 7 6 5 4 5 5 5 4
50 50 49 49 46 44 43 43 41 39 37 38 36 21 18 19 17 18 18 17 16 14 13 13 14 15 17 17 18 20 21 19 18 17 15 14 14 11 12 12 13 14 12 11 10 10 12 12 10 10 10 9 9 9 9 9 8 7 5 6 6 6 5
53 51 51 51 50 49 47 42 41 41 40 39 39 39 30 19 19 19 19 19 18 17 19 16 15 15 17 18 19 20 19 20 20 18 17 16 16 15 14 14 13 14 15 13 12 12 12 12 12 11 10 11 11 11 11 11 10 9 7 6 6 7 6
53 52 51 53 52 50 48 47 46 42 41 39 40 38 37 37 24 17 20 21 20 21 23 17 15 15 16 19 19 20 19 21 21 22 21 21 20 20 19 17 15 15 16 16 15 13 13 12 12 13 12 12 13 12 13 13 12 12 10 8 8 8 8
58 57 54 54 57 56 53 50 47 45 42 41 40 38 38 36 38 36 31 22 22 22 20 21 16 15 17 19 20 21 20 21 23 24 25 25 25 23 21 19 18 18 18 18 16 15 14 13 13 14 14 14 14 14 14 14 14 13 12 11 10 10 9
61 60 58 58 58 57 56 54 51 48 46 44 43 42 39 38 38 36 36 37 32 23 21 20 19 17 18 19 19 20 22 24 26 27 27 28 28 26 24 22 21 21 20 19 18 18 16 14 14 14 14 14 14 15 15 14 14 15 15 14 12 11 10
nan 62 61 60 59 60 58 56 55 52 50 49 48 45 43 40 38 36 35 35 32 29 24 22 20 20 19 20 19 19 23 27 28 29 29 29 29 29 27 26 24 22 21 20 20 20 19 17 16 14 14 14 14 14 15 14 15 16 15 16 16 14 13
nan nan 62 60 61 62 60 60 58 56 55 52 50 48 45 43 39 38 36 34 32 32 29 24 23 21 20 19 20 21 23 26 28 30 30 30 31 31 30 29 27 26 24 23 22 21 21 20 17 15 14 13 13 13 14 14 14 16 19 17 15 15 15
nan nan 60 60 62 62 62 62 61 60 57 55 53 51 48 45 45 43 40 39 36 30 29 27 23 23 23 20 22 22 23 24 27 29 31 32 32 32 32 32 30 29 27 26 24 24 22 20 18 17 15 14 13 13 13 14 14 20 20 19 17 16 15
nan nan nan 59 60 62 62 61 61 60 58 55 54 53 51 48 48 46 43 40 39 35 30 30 29 27 25 23 23 23 23 23 25 27 29 31 32 34 35 35 33 30 29 27 27 26 24 21 20 19 18 16 14 13 13 14 15 nan nan 20 18 16 15
nan nan nan nan nan nan 59 59 59 59 58 56 55 55 52 52 51 50 46 44 41 39 36 33 31 34 36 29 27 26 25 25 24 24 26 28 31 34 34 34 33 31 31 32 31 29 26 23 21 21 20 19 16 16 15 14 16 22 22 nan nan nan 19
nan nan nan nan nan nan nan nan 58 59 59 58 57 55 54 54 54 53 51 49 46 44 39 38 38 34 34 36 33 29 28 28 26 22 23 25 28 30 32 33 33 32 33 33 32 30 28 26 24 23 21 20 19 18 16 16 15 21 22 22 nan nan nan
nan nan nan nan nan nan nan nan nan nan 55 55 55 56 56 54 53 55 54 52 50 50 49 46 41 38 42 44 43 37 33 30 28 26 24 24 25 26 28 31 32 33 34 34 33 32 30 30 28 25 23 23 21 20 18 17 18 20 23 22 22 25 25
nan nan nan nan nan nan nan nan nan nan nan nan nan 53 55 55 54 52 53 53 53 51 51 50 49 49 49 47 42 41 38 34 31 30 27 26 24 23 25 28 30 32 34 34 33 32 30 29 30 30 27 26 25 22 20 19 20 23 23 24 24 28 23
nan nan nan nan nan nan nan nan nan nan nan nan nan nan 50 53 55 53 51 51 52 52 52 52 52 51 49 44 41 40 40 37 34 31 29 28 25 22 23 25 27 29 31 31 31 30 29 31 30 28 28 27 27 26 23 21 22 26 24 24 27 26 22
nan nan nan nan nan nan nan nan nan nan nan nan nan nan nan nan 53 55 52 50 50 51 52 53 53 53 49 45 40 39 39 39 38 36 33 30 28 25 22 22 23 26 27 27 29 29 31 31 30 29 31 29 28 28 25 24 23 28 27 27 28 27 22
nan nan nan nan nan nan nan nan nan nan nan nan nan nan nan nan nan 53 54 53 50 50 52 54 52 50 48 46 43 41 39 37 38 38 35 33 31 28 26 24 22 21 22 23 25 25 26 28 29 26 27 28 28 29 27 25 25 32 33 31 31 29 25
nan nan nan nan nan nan nan nan nan nan nan nan nan nan nan nan nan nan nan 53 52 52 52 52 50 48 47 46 45 44 43 42 38 36 36 35 34 32 29 29 26 22 21 22 24 25 25 23 26 26 25 27 29 29 27 26 25 28 38 34 34 32 29
nan nan nan nan nan nan nan nan nan nan nan nan nan nan nan nan nan nan nan nan nan 51 nan 50 49 47 47 46 45 44 45 45 45 39 37 38 40 39 35 32 30 28 26 25 25 25 23 23 24 24 24 27 27 27 26 25 23 24 37 36 36 34 32
nan nan nan nan nan nan nan nan nan nan nan nan nan nan nan nan nan nan nan nan nan nan nan nan 50 49 47 47 47 46 45 44 45 46 44 39 36 37 38 37 34 31 31 30 30 27 24 24 25 24 23 23 26 29 28 27 28 24 30 37 36 35 32
nan nan nan nan nan nan nan nan nan nan nan nan nan nan nan nan nan nan nan nan nan nan nan nan nan 50 49 49 49 47 46 44 44 44 44 44 41 37 36 36 35 35 35 34 33 30 28 27 27 27 23 24 28 30 30 31 28 27 27 35 38 35 32
nan nan nan nan nan nan nan nan nan nan nan nan nan nan nan nan nan nan nan nan nan nan nan nan nan nan nan 49 49 48 46 45 43 42 42 42 41 39 38 35 35 35 36 35 33 32 32 31 30 30 27 27 28 29 31 31 30 29 32 33 38 36 32
nan nan nan nan nan nan nan nan nan nan nan nan nan nan nan nan nan nan nan nan nan nan nan nan nan nan nan nan nan 48 48 47 44 44 43 41 42 40 39 38 36 35 34 33 34 35 35 35 34 31 29 29 28 28 30 31 29 29 33 39 36 37 33
nan nan nan nan nan nan nan nan nan nan nan nan nan nan nan nan nan nan nan nan nan nan nan nan nan nan nan nan nan nan nan nan 47 48 46 43 42 42 42 40 38 37 34 33 33 34 35 36 35 34 32 29 29 28 27 28 29 29 31 32 35 36 36
nan nan nan nan nan nan nan nan nan nan nan nan nan nan nan nan nan nan nan nan nan nan nan nan nan nan nan nan nan nan nan nan nan 47 46 45 43 43 44 43 41 38 36 35 34 34 33 33 34 35 35 34 31 29 28 29 30 28 29 31 31 30 31
nan nan nan nan nan nan nan nan nan nan nan nan nan nan nan nan nan nan nan nan nan nan nan nan nan nan nan nan nan nan nan nan nan nan 46 45 43 43 43 44 43 41 39 38 38 35 32 30 31 35 36 36 33 30 28 29 28 30 41 35 31 29 28
nan nan nan nan nan nan nan nan nan nan nan nan nan nan nan nan nan nan nan nan nan nan nan nan nan nan nan nan nan nan nan nan nan nan nan nan 43 44 45 43 nan 38 38 39 41 39 35 36 31 34 40 40 37 37 33 31 36 43 30 25 26 22 18
nan nan nan nan nan nan nan nan nan nan nan nan nan nan nan nan nan nan nan nan nan nan nan nan nan nan nan nan nan nan nan nan nan nan nan 46 41 42 44 45 42 nan nan 34 36 34 31 28 25 24 27 31 34 33 33 36 35 31 30 32 20 11 9
nan nan nan nan nan nan nan nan nan nan nan nan nan nan nan nan nan nan nan nan nan nan nan nan nan nan nan nan nan nan nan nan nan nan nan nan nan nan nan 40 40 42 40 nan nan nan 31 29 27 25 23 23 27 31 34 32 30 29 27 25 24 21 17
Wind_Direction
217 226 227 224 229 250 257 258 266 262 262 262 263 343 355 352 318 264 248 264 264 239 227 216 204 200 208 217 223 210 191 196 213 214 212 211 204 197 193 191 189 183 175 166 163 164 204 209 257 284 293 308 315 307 295 287 223 183 199 197 126 135 116
212 221 226 221 229 227 258 273 273 262 259 261 260 293 48 9 302 274 241 251 261 248 235 222 211 203 207 214 220 220 207 204 214 217 214 216 215 205 196 196 189 189 172 162 168 177 187 202 232 282 303 308 313 305 305 306 280 160 177 193 118 123 117
208 206 206 215 230 231 249 263 279 267 255 250 258 254 277 245 274 274 245 237 247 245 236 228 219 211 210 212 217 221 220 218 225 229 224 219 222 210 205 199 194 186 174 164 167 178 184 188 210 237 285 300 304 306 299 307 316 162 163 179 127 105 111
207 202 199 199 200 227 244 256 268 260 234 232 234 236 227 235 244 248 239 240 243 243 239 227 220 216 214 215 213 214 216 222 231 232 226 212 214 213 206 206 196 186 183 171 178 181 180 194 214 230 265 275 283 286 297 301 318 324 329 226 143 135 135
210 207 201 197 198 207 238 249 255 259 238 218 224 227 224 232 242 243 245 234 235 243 245 233 217 215 214 216 210 208 208 218 231 234 229 216 208 210 209 202 204 192 188 185 187 193 187 200 211 232 258 267 279 280 279 287 290 286 282 312 200 181 166
209 208 205 198 196 198 217 239 248 258 246 230 224 228 235 242 238 251 249 241 223 226 237 236 224 219 217 219 214 211 210 212 223 237 236 229 218 213 214 210 201 200 195 193 199 202 204 201 200 222 247 271 279 278 280 281 285 290 288 283 268 268 244
209 209 206 203 203 207 205 218 234 241 237 219 210 228 242 249 254 248 245 245 236 232 234 236 228 223 217 219 220 221 220 218 225 235 242 243 235 221 218 214 207 202 198 208 204 206 208 208 205 209 226 231 256 269 269 267 258 248 252 263 269 259 234
210 208 208 208 206 208 207 210 231 234 228 219 223 226 246 247 253 255 257 248 244 239 232 231 233 225 222 218 220 225 225 224 227 231 237 245 243 236 227 219 217 208 207 206 216 214 209 209 211 216 216 220 238 253 256 266 261 250 247 256 264 269 269
209 207 208 208 208 209 212 212 214 218 233 235 222 224 235 248 248 253 258 256 252 249 246 238 235 234 229 222 221 225 226 225 227 233 240 243 242 245 238 234 224 219 213 211 217 226 217 214 209 212 218 213 219 237 240 246 253 245 236 239 252 254 240
209 208 208 209 210 212 214 214 214 215 214 216 234 235 237 247 245 246 248 254 253 254 254 247 238 241 240 232 228 229 230 229 227 234 239 240 236 239 243 239 238 231 222 219 215 226 231 221 215 216 219 216 217 226 227 233 237 236 241 240 238 242 248
211 210 209 210 211 212 213 215 216 213 210 214 220 238 239 236 241 240 247 251 250 246 247 242 240 243 246 243 237 235 232 233 232 232 236 236 232 236 239 240 239 239 232 225 219 222 232 233 227 223 223 218 218 220 222 225 231 233 228 231 234 237 235
211 212 212 212 213 212 212 214 217 215 211 211 216 222 224 236 235 235 240 246 247 246 238 234 238 239 245 243 241 238 239 236 234 233 235 233 232 232 232 234 236 238 239 230 224 224 228 235 232 231 230 222 218 218 220 222 225 230 229 225 231 233 229
212 213 213 215 215 213 212 214 214 216 214 212 214 215 222 226 231 232 235 237 245 248 252 238 229 239 243 246 242 239 238 239 237 234 233 233 231 231 230 227 230 234 236 237 230 229 229 234 234 231 230 229 223 219 221 222 224 227 232 230 227 231 231
215 215 214 215 215 213 212 212 213 215 216 216 215 215 217 224 229 224 224 231 241 242 251 254 247 240 246 247 244 240 240 237 238 235 233 232 234 233 233 232 230 232 233 236 237 233 233 229 234 234 230 231 230 227 225 225 224 229 232 234 234 239 239
217 217 218 217 215 214 212 212 212 212 216 218 218 217 216 219 224 226 230 229 222 231 240 247 250 249 250 247 244 245 243 239 236 235 236 235 236 237 236 235 235 235 236 237 236 235 233 233 230 234 233 231 234 234 234 230 229 230 236 238 240 236 239
nan 220 220 218 216 216 214 212 212 212 213 216 219 219 219 218 218 221 229 237 235 223 225 235 242 247 250 255 255 249 244 241 238 237 238 239 238 239 240 240 239 238 240 241 241 239 237 235 235 233 237 235 237 239 238 235 232 241 249 243 238 243 236
nan nan 221 219 218 217 216 215 214 214 213 215 217 219 222 221 218 219 223 231 237 235 226 224 233 239 243 248 253 254 256 253 248 243 241 241 240 240 240 241 240 240 240 241 242 242 242 242 244 242 239 240 240 242 240 237 237 258 266 263 251 241 240
nan nan 220 219 219 218 218 218 217 217 217 216 216 218 220 221 221 221 222 221 227 232 234 232 233 237 236 239 244 249 256 259 258 253 247 244 242 241 241 241 241 240 242 242 244 244 242 245 247 247 246 242 239 239 237 234 240 262 269 269 269 260 246
nan nan nan 220 219 219 219 220 220 220 220 221 219 218 218 221 222 222 222 221 223 225 232 236 233 227 235 239 239 244 249 254 259 261 257 251 249 246 242 241 240 240 240 242 242 242 243 241 243 248 249 245 241 237 234 230 245 nan nan 271 272 271 260
nan nan nan nan nan nan 219 220 221 221 221 222 222 220 219 222 223 223 223 224 224 227 230 232 233 231 229 235 241 240 245 248 252 258 261 259 255 252 251 248 247 244 241 240 241 242 243 243 242 242 244 246 244 240 235 232 239 264 269 nan nan nan 263
nan nan nan nan nan nan nan nan 219 221 220 220 222 222 221 221 222 223 225 226 227 228 230 235 238 239 238 239 238 239 243 247 247 247 252 257 258 257 257 257 254 250 248 246 247 248 248 246 245 244 244 245 245 242 241 239 243 259 269 272 nan nan nan
nan nan nan nan nan nan nan nan nan nan 220 222 221 223 224 223 222 223 224 226 230 231 231 234 236 237 237 237 238 237 239 242 245 246 249 253 255 256 259 259 257 254 252 249 247 246 247 250 249 249 249 249 247 243 241 238 254 263 267 271 272 272 259
nan nan nan nan nan nan nan nan nan nan nan nan nan 222 224 223 223 223 225 227 230 232 235 235 235 234 239 240 233 231 232 236 241 246 249 250 254 256 257 259 260 258 255 254 252 251 249 248 250 251 251 253 254 251 244 241 253 266 271 273 275 268 261
nan nan nan nan nan nan nan nan nan nan nan nan nan nan 222 221 222 222 224 226 229 231 235 236 236 238 239 242 241 238 235 238 241 242 246 248 250 253 254 256 258 260 260 260 259 257 256 254 250 249 251 254 257 257 253 249 255 270 274 278 281 279 269
nan nan nan nan nan nan nan nan nan nan nan nan nan nan nan nan 218 220 221 224 226 229 231 234 236 237 239 241 241 240 240 236 235 237 239 242 245 246 248 253 257 259 260 260 260 259 258 256 252 253 253 251 252 255 259 254 255 272 277 280 283 281 268
nan nan nan nan nan nan nan nan nan nan nan nan nan nan nan nan nan 219 220 222 226 228 229 231 233 236 239 240 242 244 244 245 240 234 233 236 239 241 243 245 248 254 259 261 258 255 256 257 255 252 254 259 260 257 256 258 258 268 280 279 281 286 272
nan nan nan nan nan nan nan nan nan nan nan nan nan nan nan nan nan nan nan 222 224 227 229 229 231 234 237 239 241 244 246 247 248 242 234 232 234 236 238 242 244 247 252 257 257 255 254 255 256 256 253 250 252 258 261 259 259 266 279 280 282 285 282
nan nan nan nan nan nan nan nan nan nan nan nan nan nan nan nan nan nan nan nan nan 223 nan 229 231 233 234 237 239 240 243 245 247 250 247 237 230 231 234 237 241 242 245 248 253 255 252 249 250 251 254 254 253 253 256 259 261 256 273 281 282 282 287
nan nan nan nan nan nan nan nan nan nan nan nan nan nan nan nan nan nan nan nan nan nan nan nan 230 231 233 236 239 240 238 240 244 246 246 246 245 239 237 238 238 242 248 249 248 250 249 249 249 251 251 251 254 258 257 255 254 262 263 275 279 280 281
nan nan nan nan nan nan nan nan nan nan nan nan nan nan nan nan nan nan nan nan nan nan nan nan nan 229 231 235 238 239 240 240 240 244 249 247 243 243 245 245 242 243 247 250 251 249 249 250 251 251 248 246 250 254 256 255 254 260 269 270 278 276 278
nan nan nan nan nan nan nan nan nan nan nan nan nan nan nan nan nan nan nan nan nan nan nan nan nan nan nan 231 235 238 240 241 242 244 248 253 253 247 245 248 247 243 244 249 253 253 252 251 253 254 251 248 247 247 248 249 251 250 261 271 273 276 276
nan nan nan nan nan nan nan nan nan nan nan nan nan nan nan nan nan nan nan nan nan nan nan nan nan nan nan nan nan 235 238 239 240 244 247 251 257 257 253 248 248 249 248 248 251 254 253 251 251 251 252 250 246 244 244 246 247 249 249 254 264 267 271
nan nan nan nan nan nan nan nan nan nan nan nan nan nan nan nan nan nan nan nan nan nan nan nan nan nan nan nan nan nan nan nan 241 240 241 245 253 258 257 254 251 249 250 253 252 253 253 252 250 249 250 249 246 244 245 247 249 251 251 249 255 256 251
nan nan nan nan nan nan nan nan nan nan nan nan nan nan nan nan nan nan nan nan nan nan nan nan nan nan nan nan nan nan nan nan nan 238 240 243 246 250 254 257 255 252 252 256 258 257 256 254 251 248 249 249 244 241 246 252 252 249 247 243 246 249 248
nan nan nan nan nan nan nan nan nan nan nan nan nan nan nan nan nan nan nan nan nan nan nan nan nan nan nan nan nan nan nan nan nan nan 241 241 243 246 249 252 252 251 251 254 256 258 258 257 253 249 244 244 240 236 238 245 246 243 241 241 243 246 246
nan nan nan nan nan nan nan nan nan nan nan nan nan nan nan nan nan nan nan nan nan nan nan nan nan nan nan nan nan nan nan nan nan nan nan nan 242 243 245 251 nan 252 251 249 251 252 250 255 255 246 236 232 231 230 229 231 236 246 249 253 240 231 223
nan nan nan nan nan nan nan nan nan nan nan nan nan nan nan nan nan nan nan nan nan nan nan nan nan nan nan nan nan nan nan nan nan nan nan 241 241 241 242 242 247 nan nan 258 254 253 252 254 259 254 244 235 225 223 219 214 217 236 242 250 253 262 259
nan nan nan nan nan nan nan nan nan nan nan nan nan nan nan nan nan nan nan nan nan nan nan nan nan nan nan nan nan nan nan nan nan nan nan nan nan nan nan 241 240 240 251 nan nan nan 253 251 249 249 248 235 230 225 220 219 219 215 210 220 239 254 259